Location: Katherine
(14.4670°S, 132.2670°E)
Time: 08:04:35
(UTC+09:30)

ISS - Pass Details

Date: 22 May 2017
Orbit: 402 x 408 km, 51.6° (Epoch: 27 May)

Event Time Altitude Azimuth Distance (km) Brightness Sun altitude
Rises 19:58:10 0° 249° (WSW) 2,335 0.8 -23.6°
Reaches altitude 10° 20:01:46 10° 291° (WNW) 1,466 0.1 -24.4°
Maximum altitude 20:02:30 11° 303° (WNW) 1,431 -0.1 -24.6°
Drops below altitude 10° 20:03:14 10° 317° (NW) 1,463 -0.2 -24.7°
Sets 20:06:49 0° 358° (N) 2,313 0.2 -25.6°
